When you browse on this site, cookies collect data to enhance your experience and personalize the content and advertising you see.
Visit our Privacy Policy to learn more. By continuing to use the site, you agree to this use of cookies and data.
  • In Czech Republic
  • List of Countries
  • For 7 days
  • Water Temperature
  • Weather Map
  • Weather Widgets
  • user-avatar
    Login

    Hourly Weather Gwatemala

    Today, 22 September, Sunday

    Time Temperature Precipitation Wind Pressure Humidity
    00:00 +16°C° 0 mm 1 mps 637 mmHg 95%
    01:00 +16°C° 0.1 mm 1 mps 637 mmHg 95%
    02:00 +16°C° 0.1 mm 1 mps 636 mmHg 96%
    03:00 +16°C° 0.1 mm 1 mps 636 mmHg 96%
    04:00 +16°C° 0 mm 1 mps 636 mmHg 96%
    05:00 +16°C° 0 mm 1 mps 636 mmHg 96%
    06:00 +15°C° 0 mm 0 mps 637 mmHg 96%
    07:00 +19°C° 0 mm 1 mps 637 mmHg 92%
    08:00 +21°C° 0 mm 1 mps 638 mmHg 88%
    09:00 +22°C° 0 mm 1 mps 639 mmHg 84%
    10:00 +23°C° 0.4 mm 1 mps 639 mmHg 81%
    11:00 +24°C° 0.4 mm 1 mps 639 mmHg 78%
    12:00 +25°C° 0.4 mm 1 mps 639 mmHg 74%
    13:00 +24°C° 1.8 mm 1 mps 638 mmHg 80%
    14:00 +23°C° 1.8 mm 1 mps 637 mmHg 86%
    15:00 +22°C° 1.8 mm 1 mps 636 mmHg 92%
    16:00 +21°C° 1.4 mm 1 mps 636 mmHg 94%
    17:00 +20°C° 1.4 mm 1 mps 636 mmHg 95%
    18:00 +18°C° 1.4 mm 0 mps 636 mmHg 97%
    19:00 +17°C° 0.8 mm 0 mps 637 mmHg 96%
    20:00 +17°C° 0.8 mm 0 mps 637 mmHg 96%
    21:00 +19°C° 0.8 mm 1 mps 638 mmHg 95%
    22:00 +19°C° 0.6 mm 1 mps 637 mmHg 96%
    23:00 +19°C° 0.6 mm 1 mps 637 mmHg 96%

    Tomorrow, 23 September, Monday

    Time Temperature Precipitation Wind Pressure Humidity
    00:00 +18°C° 0.6 mm 1 mps 637 mmHg 96%
    01:00 +18°C° 0.4 mm 1 mps 637 mmHg 96%
    02:00 +18°C° 0.4 mm 1 mps 637 mmHg 96%
    03:00 +18°C° 0.4 mm 1 mps 637 mmHg 96%
    04:00 +18°C° 0.3 mm 1 mps 637 mmHg 96%
    05:00 +16°C° 0.3 mm 0 mps 637 mmHg 96%
    06:00 +16°C° 0.3 mm 0 mps 637 mmHg 96%
    07:00 +17°C° 0.2 mm 0 mps 637 mmHg 95%
    08:00 +20°C° 0.2 mm 1 mps 638 mmHg 93%
    09:00 +21°C° 0.2 mm 1 mps 639 mmHg 91%
    10:00 +22°C° 0.5 mm 1 mps 639 mmHg 87%
    11:00 +24°C° 0.5 mm 1 mps 639 mmHg 84%
    12:00 +25°C° 0.5 mm 1 mps 639 mmHg 80%
    13:00 +24°C° 1.6 mm 1 mps 638 mmHg 83%
    14:00 +24°C° 1.6 mm 1 mps 637 mmHg 87%
    15:00 +23°C° 1.6 mm 1 mps 637 mmHg 91%
    16:00 +22°C° 1.2 mm 1 mps 636 mmHg 92%
    17:00 +21°C° 1.2 mm 1 mps 636 mmHg 94%
    18:00 +20°C° 1.2 mm 1 mps 636 mmHg 96%
    19:00 +18°C° 0.8 mm 0 mps 636 mmHg 96%
    20:00 +17°C° 0.8 mm 0 mps 637 mmHg 96%
    21:00 +17°C° 0.8 mm 0 mps 637 mmHg 95%
    22:00 +17°C° 0.4 mm 0 mps 637 mmHg 95%
    23:00 +16°C° 0.4 mm 0 mps 637 mmHg 95%

    Day after tomorrow, 24 September, Tuesday

    Time Temperature Precipitation Wind Pressure Humidity
    00:00 +16°C° 0.4 mm 0 mps 636 mmHg 95%
    01:00 +16°C° 0.1 mm 0 mps 636 mmHg 95%
    02:00 +16°C° 0.1 mm 0 mps 636 mmHg 95%
    03:00 +18°C° 0.1 mm 1 mps 636 mmHg 96%
    04:00 +18°C° 0 mm 1 mps 636 mmHg 96%
    05:00 +16°C° 0 mm 1 mps 636 mmHg 96%
    06:00 +16°C° 0 mm 1 mps 636 mmHg 96%
    07:00 +20°C° 0 mm 1 mps 637 mmHg 90%
    08:00 +20°C° 0 mm 0 mps 638 mmHg 84%
    09:00 +22°C° 0 mm 0 mps 639 mmHg 78%
    10:00 +24°C° 0.4 mm 1 mps 639 mmHg 79%
    11:00 +25°C° 0.4 mm 1 mps 638 mmHg 79%
    12:00 +25°C° 0.4 mm 1 mps 638 mmHg 80%
    13:00 +24°C° 1.5 mm 1 mps 637 mmHg 83%
    14:00 +24°C° 1.5 mm 1 mps 636 mmHg 85%
    15:00 +23°C° 1.5 mm 1 mps 636 mmHg 88%
    16:00 +22°C° 0.8 mm 1 mps 636 mmHg 91%
    17:00 +21°C° 0.8 mm 1 mps 636 mmHg 93%
    18:00 +20°C° 0.8 mm 1 mps 636 mmHg 96%
    19:00 +20°C° 0.3 mm 1 mps 636 mmHg 96%
    20:00 +20°C° 0.3 mm 1 mps 636 mmHg 96%
    21:00 +19°C° 0.3 mm 1 mps 637 mmHg 97%
    22:00 +19°C° 0.4 mm 1 mps 637 mmHg 97%
    23:00 +19°C° 0.4 mm 1 mps 637 mmHg 97%

    25 September, Wednesday

    Time Temperature Precipitation Wind Pressure Humidity
    00:00 +19°C° 0.4 mm 1 mps 636 mmHg 97%
    01:00 +19°C° 0.3 mm 1 mps 636 mmHg 96%
    02:00 +16°C° 0.3 mm 0 mps 636 mmHg 96%
    03:00 +16°C° 0.3 mm 0 mps 636 mmHg 96%
    04:00 +16°C° 0.1 mm 0 mps 636 mmHg 96%
    05:00 +16°C° 0.1 mm 0 mps 636 mmHg 95%
    06:00 +15°C° 0.1 mm 0 mps 636 mmHg 95%
    07:00 +17°C° 0.1 mm 0 mps 637 mmHg 91%
    08:00 +19°C° 0.1 mm 0 mps 638 mmHg 86%
    09:00 +21°C° 0.1 mm 0 mps 639 mmHg 82%
    10:00 +24°C° 0.8 mm 1 mps 638 mmHg 83%
    11:00 +24°C° 0.8 mm 1 mps 638 mmHg 85%
    12:00 +24°C° 0.8 mm 1 mps 638 mmHg 86%
    13:00 +24°C° 1.2 mm 1 mps 637 mmHg 89%
    14:00 +23°C° 1.2 mm 1 mps 636 mmHg 91%
    15:00 +21°C° 1.2 mm 2 mps 636 mmHg 94%
    16:00 +21°C° 0.9 mm 1 mps 636 mmHg 95%
    17:00 +20°C° 0.9 mm 1 mps 636 mmHg 96%
    18:00 +20°C° 0.9 mm 1 mps 636 mmHg 97%
    19:00 +19°C° 0.2 mm 1 mps 636 mmHg 97%
    20:00 +19°C° 0.2 mm 1 mps 636 mmHg 96%
    21:00 +19°C° 0.2 mm 1 mps 637 mmHg 95%
    22:00 +17°C° 0.1 mm 0 mps 636 mmHg 95%
    23:00 +16°C° 0.1 mm 0 mps 636 mmHg 94%

    26 September, Thursday

    Time Temperature Precipitation Wind Pressure Humidity
    00:00 +16°C° 0.1 mm 0 mps 636 mmHg 93%
    01:00 +16°C° 0 mm 0 mps 635 mmHg 93%
    02:00 +18°C° 0 mm 1 mps 635 mmHg 94%
    03:00 +16°C° 0 mm 1 mps 635 mmHg 94%
    04:00 +16°C° 0 mm 1 mps 635 mmHg 94%
    05:00 +16°C° 0 mm 1 mps 635 mmHg 94%
    06:00 +16°C° 0 mm 1 mps 635 mmHg 94%
    07:00 +19°C° 0.1 mm 1 mps 636 mmHg 90%
    08:00 +21°C° 0.1 mm 1 mps 637 mmHg 86%
    09:00 +23°C° 0.1 mm 1 mps 638 mmHg 82%
    10:00 +24°C° 0.9 mm 1 mps 637 mmHg 80%
    11:00 +24°C° 0.9 mm 1 mps 637 mmHg 79%
    12:00 +25°C° 0.9 mm 1 mps 637 mmHg 77%
    13:00 +25°C° 1.6 mm 1 mps 636 mmHg 81%
    14:00 +24°C° 1.6 mm 1 mps 636 mmHg 84%
    15:00 +24°C° 1.6 mm 1 mps 635 mmHg 87%
    16:00 +22°C° 1.2 mm 1 mps 635 mmHg 90%
    17:00 +21°C° 1.2 mm 1 mps 635 mmHg 93%
    18:00 +18°C° 1.2 mm 0 mps 635 mmHg 96%
    19:00 +17°C° 0.4 mm 0 mps 635 mmHg 96%
    20:00 +17°C° 0.4 mm 0 mps 635 mmHg 96%
    21:00 +17°C° 0.4 mm 0 mps 636 mmHg 96%
    22:00 +17°C° 0.1 mm 0 mps 636 mmHg 95%
    23:00 +17°C° 0.1 mm 0 mps 635 mmHg 95%

    27 September, Friday

    Time Temperature Precipitation Wind Pressure Humidity
    00:00 +16°C° 0.1 mm 0 mps 635 mmHg 95%
    01:00 +18°C° 0 mm 1 mps 635 mmHg 95%
    02:00 +18°C° 0 mm 1 mps 634 mmHg 95%
    03:00 +18°C° 0 mm 1 mps 634 mmHg 95%
    04:00 +18°C° 0 mm 1 mps 634 mmHg 95%
    05:00 +18°C° 0 mm 1 mps 634 mmHg 94%
    06:00 +16°C° 0 mm 1 mps 635 mmHg 94%
    07:00 +17°C° 0 mm 0 mps 636 mmHg 89%
    08:00 +19°C° 0 mm 0 mps 636 mmHg 84%
    09:00 +21°C° 0 mm 0 mps 637 mmHg 79%
    10:00 +23°C° 0.4 mm 1 mps 637 mmHg 80%
    11:00 +24°C° 0.4 mm 1 mps 637 mmHg 82%
    12:00 +24°C° 0.4 mm 1 mps 637 mmHg 84%
    13:00 +23°C° 1.4 mm 1 mps 636 mmHg 86%
    14:00 +23°C° 1.4 mm 1 mps 635 mmHg 89%
    15:00 +22°C° 1.4 mm 1 mps 635 mmHg 92%
    16:00 +21°C° 0.7 mm 1 mps 635 mmHg 93%
    17:00 +20°C° 0.7 mm 1 mps 635 mmHg 95%
    18:00 +17°C° 0.7 mm 0 mps 635 mmHg 96%
    19:00 +17°C° 0.4 mm 0 mps 635 mmHg 96%
    20:00 +19°C° 0.4 mm 1 mps 635 mmHg 96%
    21:00 +19°C° 0.4 mm 1 mps 636 mmHg 96%
    22:00 +19°C° 0.4 mm 1 mps 636 mmHg 97%
    23:00 +18°C° 0.4 mm 1 mps 636 mmHg 97%
    Show more